www.pogodaiklimat.ru

ПОГОДА в Юг Хейвен, MI

  • Прогноз погоды в Юг Хейвен
  • Монитор погоды в Юг Хейвен
  • Климат в Юг Хейвен

АРХИВ ПОГОДЫ в Юг Хейвен

Время (UTC), дата Ветер
(напр.,м/с)
 
Видим.   Явления Облачность Т
(С)
Тd
(С)
f
(%)
Тe
(С)
Тes
(С)
Комфортность

P
(гПа)

Po
(гПа)
Тmin
(С)
Tmax
(С)
R
(мм)
SD
(см)
06:16 16.06 В  6 км  дымка  10/10 120 м  +18.5  +18.0  97  +19  +19      983.6         
06:35 16.06 В  6 км  дымка  10/10 120 м  +18.5  +18.0  97  +19  +19      983.3         
06:36 16.06 В  6 км  дымка  10/10 120 м  +18.5  +18.0  97  +19  +19      983.3         
06:55 16.06 В  5 км  дымка  10/10 120 м  +18.5  +18.0  97  +20  +20      983.0         
06:56 16.06 В  5 км  дымка  10/10 120 м  +18.5  +18.0  97  +20  +20      983.0         
07:19 16.06 В  4 км  дымка  10/10 60 м  +18.5  +18.0  97  +20  +20      982.7         
07:37 16.06 В  6 км  дымка  10/10 60 м  +18.5  +18.0  97  +20  +20      982.7         
07:55 16.06 В  8 км  слабый дождь  10/10 60 м  +18.5  +18.0  97  +20  +20      982.7         
08:15 16.06 В  8 км  слабый дождь  10/10 120 м  +18.5  +18.0  97  +19  +19      982.7         
08:16 16.06 В  8 км  слабый дождь  10/10 120 м  +18.5  +18.0  97  +19  +19      982.7         
08:35 16.06 СВ  5 км  слабый дождь  10/10 60 м  +18.1  +17.6  97  +18  +18      982.7         
08:40 16.06 СВ  4 км  слабый дождь  10/10 60 м  +17.7  +17.2  97  +18  +18      982.7         
08:58 16.06 В  5 км  слабый дождь  10/10 60 м  +17.4  +16.9  97  +17  +17      983.0         
09:16 16.06 СВ  5 км  слабый дождь  10/10 60 м  +17.1  +16.6  97  +17  +17      983.0         
09:35 16.06 В  5 км  дымка  10/10 60 м  +17.0  +16.5  97  +17  +17      984.0         
09:36 16.06 В  5 км  дымка  10/10 60 м  +17.0  +16.5  97  +17  +17      984.0         
09:55 16.06 В  5 км  сильный дождь  10/10 120 м  +17.0  +16.5  97  +17  +17      984.0         
09:56 16.06 В  4 км  сильный дождь  10/10 120 м  +17.0  +16.5  97  +17  +17      984.0         
10:18 16.06 В  5 км  дождь  10/10 120 м  +16.8  +16.3  97  +16  +16      984.0         
10:37 16.06 В  8 км  слабый дождь  10/10 120 м  +16.7  +16.2  97  +16  +16      984.3         
10:55 16.06 В  8 км  слабая морось  10/10 120 м  +16.6  +16.1  97  +16  +16      984.6  +16.6  +18.6     
11:15 16.06 В  11 км    10/10 180 м  +16.3  +15.7  96  +16  +16      984.6         
11:16 16.06 В  11 км    10/10 180 м  +16.3  +15.7  96  +16  +16      984.6         
11:35 16.06 В  16 км    10/10 180 м  +16.3  +15.7  96  +16  +16      985.0         
11:40 16.06 В  16 км    10/10 180 м  +16.3  +15.7  96  +16  +16      985.0         
11:58 16.06 В  16 км    10/10 180 м  +16.2  +15.6  96  +15  +15      985.0         
12:16 16.06 В  16 км    10/10 180 м  +16.5  +15.8  96  +16  +16      985.0         
12:35 16.06 В  16 км    10/10 180 м  +16.4  +15.6  95  +15  +15      985.0         
12:55 16.06 В  16 км    10/10 180 м  +16.5  +15.6  94  +16  +16      985.0         
12:56 16.06 В  16 км    10/10 180 м  +16.5  +15.6  94  +16  +16      985.0         
13:19 16.06 В  16 км    10/10 180 м  +16.5  +15.6  94  +16  +16      985.6         
13:37 16.06 В  16 км    10/10 180 м  +16.9  +15.9  94  +16  +16      985.6         
13:55 16.06 В  16 км    10/10 240 м  +17.8  +16.5  92  +18  +18      985.3         
14:15 16.06 В  16 км    10/10 240 м  +18.5  +16.8  90  +19  +19      985.3         
14:16 16.06 В  16 км    10/10 240 м  +18.5  +16.8  90  +19  +19      985.3         
14:35 16.06 В  16 км    10/10 180 м  +17.6  +16.1  91  +17  +17      986.0         
14:40 16.06 В  16 км    10/10 180 м  +17.5  +16.0  91  +17  +17      986.0         
14:58 16.06 В  16 км    10/10 180 м  +17.3  +15.9  91  +17  +17      986.3         
15:16 16.06 В  16 км    10/10 180 м  +17.3  +15.8  91  +17  +17      986.6         
15:35 16.06 В  16 км    10/10 180 м  +17.2  +15.7  91  +18  +18      986.3         
15:36 16.06 В  16 км    10/10 180 м  +17.3  +15.8  91  +17  +17      986.3         
15:55 16.06 В  16 км    10/10 240 м  +17.5  +15.7  89  +17  +17      986.6         
15:56 16.06 В  16 км    10/10 240 м  +17.5  +15.7  89  +17  +17      986.6         
16:19 16.06 В  16 км    10/10 240 м  +18.5  +16.1  86  +19  +19      986.6         
16:37 16.06 В  16 км    8/5 240 м
[средняя] 
+19.8  +16.8  83  +23  +27  комфорт    986.3         
16:55 16.06 ЮВ  16 км    8/8 390 м
[средняя] 
+19.8  +16.6  82  +22  +26  комфорт    986.6  +16.2  +19.8     
16:56 16.06 ЮВ  16 км    8/8 390 м
[средняя] 
+19.8  +16.6  82  +22  +25  комфорт    986.6  +16.2  +19.8     
17:15 16.06 В  16 км    10/10 390 м  +19.0  +16.1  83  +21  +21  комфорт    986.6         

 

Местоположение метеостанции South Haven Area Regional Airport: широта 42.3508 долгота -86.2561 высота над уровнем моря 203 м.

В архиве по умолчанию представлена погода в Юг Хейвен за последние 1-2 суток. Обновление информации о фактической погоде в базе происходит ежечасно! Архивные данные за месяц целиком и за предыдущие месяцы Вы можете получить, выбрав интересующий диапазон дат из раскрывающегося списка и нажав кнопку "Ввод!".

Внимание! Архив погоды МЕТАР в базе сайта хранится не более 60 дней. Нет смысла пытаться выбрать более раннюю дату.

Внимание! Время в таблицах - всемирное. Для получения местного времени необходимо прибавить поправку, которая в Юг Хейвен равна -5 ч.

Ветер - указаны скорость ветра в м/с и направление, откуда дует ветер: С - северный, СВ - северо-восточный, В - восточный, ЮВ - юго-восточный, Ю - южный, ЮЗ - юго-западный, З - западный, СЗ - северо-западный.
Видимость - горизонтальная дальность видимости в метрах или километрах. При видимости от 1 до 10 км при отсутствии осадков обычно наблюдается дымка, при ухудшении видимости до 1 км и менее - туман. В сухую погоду видимость может ухудшаться дымом, пылью или мглою.
Атмосферные явления - указаны явления, наблюдавшиеся в указанный момент времени.
Облачность - указаны через наклонную черту верхняя и нижняя облачность в баллах и высота нижней границы облаков в метрах. Внимание: облачность, как и прочие метеорологические величины в США измеряются автоматическими метеостанциями. Указанные значения в баллах носят условный характер и показывают процент времени, в течение которого, в среднем, лазерный луч высотомера отражался от облаков обратно.
T - Температура воздуха - температура, измеренная на высоте 2 м над землей.
Td - Температура точки росы - температура, при понижении до которой содержащийся в воздухе водяной пар достигнет насыщения.
f - Относительная влажность воздуха - влажноcть воздуха, измеренная на высоте 2 м над землей.
Te - Эффективная температура - температура, которую ощущает одетый по сезону человек в тени. Характеристика душности погоды. При расчете учитывается влияние влажности воздуха и скорости ветра на теплоощущения человека.
Tes - Эффективная температура на солнце - температура, которую ощущает человек, с поправкой на солнечный нагрев. Характеристика знойности погоды. Зависит от высоты солнца над горизонтом, облачности и скорости ветра. Ночью, в пасмурную погоду, а также при ветре 12 м/с и более поправка равна нулю.
P - Атмосферное давление - приведенное к уровню моря атмосферное давление.
Po - Атмосферное давление - измеренное на уровне метеостанции атмосферное давление.
Tmin - Минимальная температура - минимум температуры воздуха на высоте 2 м над землей.
Tmax - Максимальная температура - максимум температуры воздуха на высоте 2 м над землей.
R - Количество осадков - Количество выпавших осадков за 3 или 6 часов, мм.
SD - Снежный покров - Высота снежного покрова, см.